Time,TemperatureF,DewpointF,PressureIn,WindDirection,WindDirectionDegrees,WindSpeedMPH,WindSpeedGustMPH,Humidity,HourlyPrecipIn,Conditions,Clouds,dailyrainin,SoftwareType,DateUTC
2013-05-07 00:01:00,61.2,49.0,29.89,ESE,113,3.4,4.0,64,0.00,,,0.00,WUHU216HW,2013-05-07 07:01:00,
2013-05-07 00:06:00,61.2,49.0,29.89,ESE,113,4.3,4.9,64,0.00,,,0.00,WUHU216HW,2013-05-07 07:06:00,
2013-05-07 00:11:00,61.2,49.4,29.89,ENE,68,4.0,4.9,65,0.00,,,0.00,WUHU216HW,2013-05-07 07:11:00,
2013-05-07 00:16:00,61.2,49.0,29.89,East,90,0.9,4.7,64,0.00,,,0.00,WUHU216HW,2013-05-07 07:16:00,
2013-05-07 00:21:00,61.2,49.4,29.90,East,90,1.3,4.3,65,0.00,,,0.00,WUHU216HW,2013-05-07 07:21:00,
2013-05-07 00:26:00,61.2,49.4,29.90,NE,45,1.1,2.9,65,0.00,,,0.00,WUHU216HW,2013-05-07 07:26:00,
2013-05-07 00:31:00,61.2,49.4,29.90,SSE,158,0.4,3.8,65,0.00,,,0.00,WUHU216HW,2013-05-07 07:31:00,
2013-05-07 00:36:00,61.2,49.4,29.90,SSE,158,2.0,4.3,65,0.00,,,0.00,WUHU216HW,2013-05-07 07:36:00,
2013-05-07 00:41:00,61.2,49.4,29.90,SE,135,3.4,4.3,65,0.00,,,0.00,WUHU216HW,2013-05-07 07:41:00,
2013-05-07 00:46:00,61.2,49.4,29.89,SE,135,3.4,4.0,65,0.00,,,0.00,WUHU216HW,2013-05-07 07:46:00,
2013-05-07 00:51:00,61.0,49.2,29.89,ESE,113,2.2,5.4,65,0.00,,,0.00,WUHU216HW,2013-05-07 07:51:00,
2013-05-07 00:56:00,61.0,49.2,29.89,SE,135,3.8,5.4,65,0.00,,,0.00,WUHU216HW,2013-05-07 07:56:00,
2013-05-07 01:02:00,60.8,49.1,29.89,SSE,158,1.1,3.8,65,0.00,,,0.00,WUHU216HW,2013-05-07 08:02:00,
2013-05-07 01:07:00,60.8,49.1,29.89,SE,135,2.9,3.1,65,0.00,,,0.00,WUHU216HW,2013-05-07 08:07:00,
2013-05-07 01:12:00,60.8,49.1,29.89,West,270,2.0,3.4,65,0.00,,,0.00,WUHU216HW,2013-05-07 08:12:00,
2013-05-07 01:17:00,60.7,48.9,29.89,ESE,113,2.0,4.0,65,0.00,,,0.00,WUHU216HW,2013-05-07 08:17:00,
2013-05-07 01:22:00,60.5,48.7,29.89,WSW,248,0.2,4.0,65,0.00,,,0.00,WUHU216HW,2013-05-07 08:22:00,
2013-05-07 01:27:00,60.3,48.5,29.89,SSE,158,1.1,2.2,65,0.00,,,0.00,WUHU216HW,2013-05-07 08:27:00,
2013-05-07 01:32:00,60.1,48.3,29.89,ESE,113,0.7,2.2,65,0.00,,,0.00,WUHU216HW,2013-05-07 08:32:00,
2013-05-07 01:37:00,60.1,47.9,29.89,SSE,158,0.7,1.6,64,0.00,,,0.00,WUHU216HW,2013-05-07 08:37:00,
2013-05-07 01:42:00,59.9,48.2,29.89,South,180,1.3,2.5,65,0.00,,,0.00,WUHU216HW,2013-05-07 08:42:00,
2013-05-07 01:47:00,59.9,48.2,29.89,ESE,113,0.2,2.5,65,0.00,,,0.00,WUHU216HW,2013-05-07 08:47:00,
2013-05-07 01:52:00,59.8,48.0,29.89,SSW,203,0.4,2.5,65,0.00,,,0.00,WUHU216HW,2013-05-07 08:52:00,
2013-05-07 01:57:00,59.8,48.0,29.89,ESE,113,0.0,2.5,65,0.00,,,0.00,WUHU216HW,2013-05-07 08:57:00,
2013-05-07 02:02:00,59.6,47.8,29.88,SE,135,0.4,2.5,65,0.00,,,0.00,WUHU216HW,2013-05-07 09:02:00,
2013-05-07 02:07:00,59.4,47.6,29.88,SSE,158,0.4,0.9,65,0.00,,,0.00,WUHU216HW,2013-05-07 09:07:00,
2013-05-07 02:12:00,59.4,48.1,29.88,SE,135,0.4,1.3,66,0.00,,,0.00,WUHU216HW,2013-05-07 09:12:00,
2013-05-07 02:17:00,59.0,47.7,29.88,SE,135,1.1,2.0,66,0.00,,,0.00,WUHU216HW,2013-05-07 09:17:00,
2013-05-07 02:22:00,59.0,47.7,29.88,SE,135,0.4,2.0,66,0.00,,,0.00,WUHU216HW,2013-05-07 09:22:00,
2013-05-07 02:27:00,58.7,47.7,29.88,East,90,0.4,2.7,67,0.00,,,0.00,WUHU216HW,2013-05-07 09:27:00,
2013-05-07 02:32:00,58.7,47.7,29.88,East,90,0.0,2.7,67,0.00,,,0.00,WUHU216HW,2013-05-07 09:32:00,
2013-05-07 02:37:00,58.5,47.5,29.88,South,180,0.2,1.1,67,0.00,,,0.00,WUHU216HW,2013-05-07 09:37:00,
2013-05-07 02:42:00,58.3,47.3,29.88,SSE,158,0.0,0.4,67,0.00,,,0.00,WUHU216HW,2013-05-07 09:42:00,
2013-05-07 02:47:00,58.3,47.8,29.88,SE,135,0.2,0.4,68,0.00,,,0.00,WUHU216HW,2013-05-07 09:47:00,
2013-05-07 02:52:00,58.1,48.0,29.88,WSW,248,0.0,0.4,69,0.00,,,0.00,WUHU216HW,2013-05-07 09:52:00,
2013-05-07 02:57:00,58.0,47.9,29.88,WSW,248,0.0,0.4,69,0.00,,,0.00,WUHU216HW,2013-05-07 09:57:00,
2013-05-07 03:03:00,58.0,47.9,29.88,WSW,248,0.0,0.2,69,0.00,,,0.00,WUHU216HW,2013-05-07 10:03:00,
2013-05-07 03:08:00,57.8,47.7,29.88,WSW,248,0.4,0.4,69,0.00,,,0.00,WUHU216HW,2013-05-07 10:08:00,
2013-05-07 03:13:00,57.6,47.5,29.88,NW,315,0.0,0.4,69,0.00,,,0.00,WUHU216HW,2013-05-07 10:13:00,
2013-05-07 03:18:00,57.6,47.5,29.88,NW,315,0.0,0.0,69,0.00,,,0.00,WUHU216HW,2013-05-07 10:18:00,
2013-05-07 03:23:00,57.2,47.2,29.88,NW,315,0.0,0.0,69,0.00,,,0.00,WUHU216HW,2013-05-07 10:23:00,
2013-05-07 03:28:00,57.1,47.0,29.89,NW,315,0.0,0.0,69,0.00,,,0.00,WUHU216HW,2013-05-07 10:28:00,
2013-05-07 03:33:00,56.9,47.2,29.89,NW,315,0.0,0.0,70,0.00,,,0.00,WUHU216HW,2013-05-07 10:33:00,
2013-05-07 03:38:00,56.7,47.1,29.88,NW,315,0.0,0.0,70,0.00,,,0.00,WUHU216HW,2013-05-07 10:38:00,
2013-05-07 03:43:00,56.5,46.9,29.88,North,0,0.0,0.4,70,0.00,,,0.00,WUHU216HW,2013-05-07 10:43:00,
2013-05-07 03:48:00,56.3,46.7,29.89,North,0,0.0,0.4,70,0.00,,,0.00,WUHU216HW,2013-05-07 10:48:00,
2013-05-07 03:53:00,56.2,46.9,29.89,ESE,113,0.0,0.7,71,0.00,,,0.00,WUHU216HW,2013-05-07 10:53:00,
2013-05-07 03:58:00,56.0,46.7,29.89,SE,135,0.0,0.7,71,0.00,,,0.00,WUHU216HW,2013-05-07 10:58:00,
2013-05-07 04:03:00,55.8,46.5,29.89,SE,135,0.0,0.4,71,0.00,,,0.00,WUHU216HW,2013-05-07 11:03:00,
2013-05-07 04:08:00,55.8,46.9,29.89,SE,135,0.0,0.2,72,0.00,,,0.00,WUHU216HW,2013-05-07 11:08:00,
2013-05-07 04:13:00,55.6,46.7,29.89,ESE,113,0.4,0.4,72,0.00,,,0.00,WUHU216HW,2013-05-07 11:13:00,
2013-05-07 04:18:00,55.4,46.6,29.89,ESE,113,0.0,0.4,72,0.00,,,0.00,WUHU216HW,2013-05-07 11:18:00,
2013-05-07 04:23:00,55.4,46.6,29.89,ESE,113,0.0,0.4,72,0.00,,,0.00,WUHU216HW,2013-05-07 11:23:00,
2013-05-07 04:28:00,55.4,46.9,29.89,ESE,113,0.4,0.4,73,0.00,,,0.00,WUHU216HW,2013-05-07 11:28:00,
2013-05-07 04:33:00,55.4,46.9,29.89,ESE,113,0.0,0.4,73,0.00,,,0.00,WUHU216HW,2013-05-07 11:33:00,
2013-05-07 04:38:00,55.4,46.9,29.89,ESE,113,0.0,0.2,73,0.00,,,0.00,WUHU216HW,2013-05-07 11:38:00,
2013-05-07 04:43:00,55.3,46.7,29.89,ESE,113,0.0,0.0,73,0.00,,,0.00,WUHU216HW,2013-05-07 11:43:00,
2013-05-07 04:48:00,55.3,46.7,29.89,ESE,113,0.0,0.0,73,0.00,,,0.00,WUHU216HW,2013-05-07 11:48:00,
2013-05-07 04:53:00,55.3,46.7,29.89,ESE,113,0.0,0.0,73,0.00,,,0.00,WUHU216HW,2013-05-07 11:53:00,
2013-05-07 04:59:00,55.4,46.9,29.89,ESE,113,0.0,0.0,73,0.00,,,0.00,WUHU216HW,2013-05-07 11:59:00,
2013-05-07 05:04:00,55.4,46.9,29.89,ESE,113,0.0,0.0,73,0.00,,,0.00,WUHU216HW,2013-05-07 12:04:00,
2013-05-07 05:09:00,55.4,46.9,29.89,SE,135,0.0,0.0,73,0.00,,,0.00,WUHU216HW,2013-05-07 12:09:00,
2013-05-07 05:14:00,55.4,47.3,29.89,SE,135,0.0,0.0,74,0.00,,,0.00,WUHU216HW,2013-05-07 12:14:00,
2013-05-07 05:19:00,55.4,47.3,29.89,SE,135,0.0,0.0,74,0.00,,,0.00,WUHU216HW,2013-05-07 12:19:00,
2013-05-07 05:24:00,55.4,47.3,29.90,SE,135,0.0,0.0,74,0.00,,,0.00,WUHU216HW,2013-05-07 12:24:00,
2013-05-07 05:29:00,55.4,47.3,29.90,SE,135,0.0,0.0,74,0.00,,,0.00,WUHU216HW,2013-05-07 12:29:00,
2013-05-07 05:34:00,55.4,47.3,29.90,SE,135,0.0,0.0,74,0.00,,,0.00,WUHU216HW,2013-05-07 12:34:00,
2013-05-07 05:39:00,55.4,47.3,29.90,SE,135,0.0,0.4,74,0.00,,,0.00,WUHU216HW,2013-05-07 12:39:00,
2013-05-07 05:44:00,55.4,47.3,29.90,SE,135,0.0,0.4,74,0.00,,,0.00,WUHU216HW,2013-05-07 12:44:00,
2013-05-07 05:49:00,55.4,47.3,29.90,ESE,113,0.0,0.0,74,0.00,,,0.00,WUHU216HW,2013-05-07 12:49:00,
2013-05-07 05:54:00,55.4,47.3,29.90,ESE,113,0.0,0.0,74,0.00,,,0.00,WUHU216HW,2013-05-07 12:54:00,
2013-05-07 05:59:00,55.4,47.6,29.90,ESE,113,0.0,0.0,75,0.00,,,0.00,WUHU216HW,2013-05-07 12:59:00,
2013-05-07 06:04:00,55.4,47.6,29.90,ESE,113,0.0,0.0,75,0.00,,,0.00,WUHU216HW,2013-05-07 13:04:00,
2013-05-07 06:09:00,55.4,47.6,29.90,ESE,113,0.0,0.0,75,0.00,,,0.00,WUHU216HW,2013-05-07 13:09:00,
2013-05-07 06:14:00,55.4,47.6,29.90,ESE,113,0.0,0.0,75,0.00,,,0.00,WUHU216HW,2013-05-07 13:14:00,
2013-05-07 06:19:00,55.4,47.6,29.91,ESE,113,0.0,0.0,75,0.00,,,0.00,WUHU216HW,2013-05-07 13:19:00,
2013-05-07 06:24:00,55.4,47.6,29.91,ESE,113,0.0,0.0,75,0.00,,,0.00,WUHU216HW,2013-05-07 13:24:00,
2013-05-07 06:30:00,55.6,47.8,29.91,ESE,113,0.0,0.0,75,0.00,,,0.00,WUHU216HW,2013-05-07 13:30:00,
2013-05-07 06:35:00,55.6,48.2,29.91,ESE,113,0.0,0.0,76,0.00,,,0.00,WUHU216HW,2013-05-07 13:35:00,
2013-05-07 06:40:00,55.6,48.2,29.91,ESE,113,0.0,0.0,76,0.00,,,0.00,WUHU216HW,2013-05-07 13:40:00,
2013-05-07 06:45:00,55.8,48.3,29.91,ESE,113,0.0,0.0,76,0.00,,,0.00,WUHU216HW,2013-05-07 13:45:00,
2013-05-07 06:50:00,55.8,48.3,29.91,ESE,113,0.0,0.0,76,0.00,,,0.00,WUHU216HW,2013-05-07 13:50:00,
2013-05-07 06:55:00,56.0,48.5,29.91,ESE,113,0.0,0.0,76,0.00,,,0.00,WUHU216HW,2013-05-07 13:55:00,
2013-05-07 07:00:00,56.2,48.6,29.91,ESE,113,0.0,0.0,76,0.00,,,0.00,WUHU216HW,2013-05-07 14:00:00,
2013-05-07 07:05:00,56.3,48.8,29.92,ESE,113,0.0,0.0,76,0.00,,,0.00,WUHU216HW,2013-05-07 14:05:00,
2013-05-07 07:10:00,56.5,49.0,29.91,ESE,113,0.0,0.0,76,0.00,,,0.00,WUHU216HW,2013-05-07 14:10:00,
2013-05-07 07:15:00,56.7,49.1,29.92,ESE,113,0.0,0.0,76,0.00,,,0.00,WUHU216HW,2013-05-07 14:15:00,
2013-05-07 07:20:00,57.1,49.5,29.92,ESE,113,0.2,0.4,76,0.00,,,0.00,WUHU216HW,2013-05-07 14:20:00,
2013-05-07 07:25:00,57.2,49.7,29.92,ESE,113,0.0,0.4,76,0.00,,,0.00,WUHU216HW,2013-05-07 14:25:00,
2013-05-07 07:30:00,57.6,50.0,29.92,ESE,113,0.0,0.4,76,0.00,,,0.00,WUHU216HW,2013-05-07 14:30:00,
2013-05-07 07:35:00,57.8,50.2,29.93,ESE,113,0.2,0.7,76,0.00,,,0.00,WUHU216HW,2013-05-07 14:35:00,
2013-05-07 07:40:00,58.1,50.6,29.93,ESE,113,0.0,0.7,76,0.00,,,0.00,WUHU216HW,2013-05-07 14:40:00,
2013-05-07 07:45:00,58.5,50.6,29.93,ESE,113,0.0,0.4,75,0.00,,,0.00,WUHU216HW,2013-05-07 14:45:00,
2013-05-07 07:50:00,58.7,50.8,29.93,SE,135,0.2,0.4,75,0.00,,,0.00,WUHU216HW,2013-05-07 14:50:00,
2013-05-07 07:55:00,59.0,50.8,29.93,SE,135,0.0,0.4,74,0.00,,,0.00,WUHU216HW,2013-05-07 14:55:00,
2013-05-07 08:00:00,59.4,51.1,29.93,SE,135,0.0,0.2,74,0.00,,,0.00,WUHU216HW,2013-05-07 15:00:00,
2013-05-07 08:03:00,59.8,51.1,29.93,SE,135,0.0,0.0,73,0.00,,,0.00,WUHU216HW,2013-05-07 15:03:00,
2013-05-07 08:05:00,59.8,51.1,29.93,SE,135,0.0,0.0,73,0.00,,,0.00,WUHU216HW,2013-05-07 15:05:00,
2013-05-07 08:11:00,59.8,51.1,29.93,SE,135,0.0,0.0,73,0.00,,,0.00,WUHU216HW,2013-05-07 15:11:00,
2013-05-07 08:29:00,61.9,52.5,29.94,WSW,248,0.0,0.0,71,0.00,,,0.00,WUHU216HW,2013-05-07 15:29:00,
2013-05-07 08:30:00,61.9,52.5,29.94,WSW,248,0.0,0.0,71,0.00,,,0.00,WUHU216HW,2013-05-07 15:30:00,
2013-05-07 08:35:00,61.9,52.5,29.94,WSW,248,0.0,0.0,71,0.00,,,0.00,WUHU216HW,2013-05-07 15:35:00,
2013-05-07 09:00:00,63.0,53.5,29.94,NW,315,1.1,1.1,71,0.00,,,0.00,WUHU216HW,2013-05-07 16:00:00,
2013-05-07 09:01:00,63.0,53.5,29.94,NW,315,1.1,1.1,71,0.00,,,0.00,WUHU216HW,2013-05-07 16:01:00,
2013-05-07 09:06:00,63.0,53.5,29.94,NW,315,1.1,1.1,71,0.00,,,0.00,WUHU216HW,2013-05-07 16:06:00,
2013-05-07 12:00:00,70.9,52.4,29.94,WSW,248,0.0,0.0,52,0.00,,,0.00,WUHU216HW,2013-05-07 19:00:00,
2013-05-07 12:01:00,70.9,52.4,29.94,WSW,248,0.0,0.0,52,0.00,,,0.00,WUHU216HW,2013-05-07 19:01:00,
2013-05-07 12:06:00,70.9,52.4,29.94,WSW,248,0.0,0.0,52,0.00,,,0.00,WUHU216HW,2013-05-07 19:06:00,
2013-05-07 16:00:00,72.0,51.8,29.91,NNW,338,2.9,2.9,49,0.00,,,0.00,WUHU216HW,2013-05-07 23:00:00,
2013-05-07 16:01:00,72.0,51.8,29.91,NNW,338,2.9,2.9,49,0.00,,,0.00,WUHU216HW,2013-05-07 23:01:00,
2013-05-07 16:06:00,72.0,51.8,29.91,NNW,338,2.9,2.9,49,0.00,,,0.00,WUHU216HW,2013-05-07 23:06:00,
2013-05-07 17:01:00,76.7,51.2,29.90,WSW,248,5.4,5.4,41,0.00,,,0.00,WUHU216HW,2013-05-08 00:01:00,
2013-05-07 17:06:00,76.0,51.2,29.90,WSW,248,2.2,5.8,42,0.00,,,0.00,WUHU216HW,2013-05-08 00:06:00,
2013-05-07 17:11:00,74.7,50.7,29.90,NW,315,2.5,5.8,43,0.00,,,0.00,WUHU216HW,2013-05-08 00:11:00,
2013-05-07 17:16:00,74.7,50.7,29.90,WNW,293,3.1,5.8,43,0.00,,,0.00,WUHU216HW,2013-05-08 00:16:00,
2013-05-07 17:21:00,75.6,50.9,29.91,NW,315,3.6,3.8,42,0.00,,,0.00,WUHU216HW,2013-05-08 00:21:00,
2013-05-07 17:26:00,75.8,50.4,29.91,NW,315,2.9,3.6,41,0.00,,,0.00,WUHU216HW,2013-05-08 00:26:00,
2013-05-07 17:31:00,76.0,50.0,29.91,WSW,248,3.4,4.7,40,0.00,,,0.00,WUHU216HW,2013-05-08 00:31:00,
2013-05-07 17:36:00,75.8,51.0,29.91,NNW,338,2.5,4.7,42,0.00,,,0.00,WUHU216HW,2013-05-08 00:36:00,
2013-05-07 17:41:00,77.6,51.4,29.91,WNW,293,1.6,3.8,40,0.00,,,0.00,WUHU216HW,2013-05-08 00:41:00,
2013-05-07 17:46:00,77.2,50.3,29.91,WNW,293,2.5,4.0,39,0.00,,,0.00,WUHU216HW,2013-05-08 00:46:00,
2013-05-07 17:51:00,77.0,50.2,29.91,WNW,293,2.0,5.4,39,0.00,,,0.00,WUHU216HW,2013-05-08 00:51:00,
2013-05-07 17:56:00,75.8,49.8,29.91,WNW,293,2.5,5.4,40,0.00,,,0.00,WUHU216HW,2013-05-08 00:56:00,
2013-05-07 18:01:00,74.5,49.9,29.91,NW,315,3.8,4.7,42,0.00,,,0.00,WUHU216HW,2013-05-08 01:01:00,
2013-05-07 18:06:00,74.7,49.4,29.91,North,0,2.9,3.8,41,0.00,,,0.00,WUHU216HW,2013-05-08 01:06:00,
2013-05-07 18:11:00,73.4,49.5,29.91,NW,315,3.1,3.1,43,0.00,,,0.00,WUHU216HW,2013-05-08 01:11:00,
2013-05-07 18:16:00,72.0,50.0,29.91,North,0,2.7,3.1,46,0.00,,,0.00,WUHU216HW,2013-05-08 01:16:00,
2013-05-07 18:21:00,71.3,50.0,29.91,NW,315,0.7,2.7,47,0.00,,,0.00,WUHU216HW,2013-05-08 01:21:00,
2013-05-07 18:26:00,70.9,49.0,29.91,NW,315,2.5,2.5,46,0.00,,,0.00,WUHU216HW,2013-05-08 01:26:00,
2013-05-07 18:31:00,70.0,48.2,29.91,West,270,2.5,4.0,46,0.00,,,0.00,WUHU216HW,2013-05-08 01:31:00,
2013-05-07 18:36:00,69.3,48.2,29.92,NW,315,1.6,4.0,47,0.00,,,0.00,WUHU216HW,2013-05-08 01:36:00,
2013-05-07 18:42:00,69.1,49.1,29.92,NNW,338,1.3,3.6,49,0.00,,,0.00,WUHU216HW,2013-05-08 01:42:00,
2013-05-07 18:47:00,68.8,47.6,29.92,WSW,248,2.7,4.5,47,0.00,,,0.00,WUHU216HW,2013-05-08 01:47:00,
2013-05-07 18:52:00,68.4,48.5,29.92,NW,315,2.9,4.5,49,0.00,,,0.00,WUHU216HW,2013-05-08 01:52:00,
2013-05-07 18:57:00,67.7,48.4,29.92,NW,315,1.8,3.4,50,0.00,,,0.00,WUHU216HW,2013-05-08 01:57:00,
2013-05-07 19:02:00,67.0,49.8,29.92,NNW,338,3.4,3.6,54,0.00,,,0.00,WUHU216HW,2013-05-08 02:02:00,
2013-05-07 19:07:00,67.0,49.8,29.92,WNW,293,3.1,3.6,54,0.00,,,0.00,WUHU216HW,2013-05-08 02:07:00,
2013-05-07 19:12:00,67.1,49.4,29.92,NNW,338,2.2,3.1,53,0.00,,,0.00,WUHU216HW,2013-05-08 02:12:00,
2013-05-07 19:17:00,66.8,49.6,29.92,NW,315,3.4,3.4,54,0.00,,,0.00,WUHU216HW,2013-05-08 02:17:00,
2013-05-07 19:22:00,67.1,50.0,29.93,WNW,293,1.1,3.4,54,0.00,,,0.00,WUHU216HW,2013-05-08 02:22:00,
2013-05-07 19:27:00,66.1,50.4,29.93,NNW,338,0.4,1.8,57,0.00,,,0.00,WUHU216HW,2013-05-08 02:27:00,
2013-05-07 19:32:00,65.2,50.5,29.93,North,0,2.0,2.0,59,0.00,,,0.00,WUHU216HW,2013-05-08 02:32:00,
2013-05-07 19:37:00,64.3,50.5,29.93,NNW,338,1.1,2.5,61,0.00,,,0.00,WUHU216HW,2013-05-08 02:37:00,
2013-05-07 19:42:00,63.9,50.1,29.93,NNW,338,1.1,2.5,61,0.00,,,0.00,WUHU216HW,2013-05-08 02:42:00,
2013-05-07 19:47:00,63.7,50.4,29.94,West,270,1.1,2.5,62,0.00,,,0.00,WUHU216HW,2013-05-08 02:47:00,
2013-05-07 19:52:00,63.7,50.9,29.94,NW,315,1.8,1.8,63,0.00,,,0.00,WUHU216HW,2013-05-08 02:52:00,
2013-05-07 19:57:00,63.2,50.8,29.94,NW,315,0.9,1.8,64,0.00,,,0.00,WUHU216HW,2013-05-08 02:57:00,
2013-05-07 20:02:00,63.0,51.0,29.94,NNW,338,1.3,1.3,65,0.00,,,0.00,WUHU216HW,2013-05-08 03:02:00,
2013-05-07 20:07:00,62.6,50.7,29.94,NNW,338,0.2,1.8,65,0.00,,,0.00,WUHU216HW,2013-05-08 03:07:00,
2013-05-07 20:12:00,62.3,50.8,29.94,NNW,338,0.7,1.8,66,0.00,,,0.00,WUHU216HW,2013-05-08 03:12:00,
2013-05-07 20:17:00,62.1,50.6,29.94,NW,315,1.8,2.7,66,0.00,,,0.00,WUHU216HW,2013-05-08 03:17:00,
2013-05-07 20:23:00,61.9,50.4,29.95,WNW,293,0.9,2.7,66,0.00,,,0.00,WUHU216HW,2013-05-08 03:23:00,
2013-05-07 20:28:00,61.6,50.9,29.95,NNW,338,0.4,1.1,68,0.00,,,0.00,WUHU216HW,2013-05-08 03:28:00,
2013-05-07 20:33:00,61.4,50.8,29.95,NW,315,0.2,1.1,68,0.00,,,0.00,WUHU216HW,2013-05-08 03:33:00,
2013-05-07 20:38:00,61.4,50.8,29.95,NNW,338,1.3,1.3,68,0.00,,,0.00,WUHU216HW,2013-05-08 03:38:00,
2013-05-07 20:43:00,61.2,51.0,29.96,WNW,293,0.2,1.3,69,0.00,,,0.00,WUHU216HW,2013-05-08 03:43:00,
2013-05-07 20:48:00,61.4,50.8,29.96,WNW,293,0.4,0.7,68,0.00,,,0.00,WUHU216HW,2013-05-08 03:48:00,
2013-05-07 20:53:00,61.4,51.2,29.96,West,270,1.3,1.3,69,0.00,,,0.00,WUHU216HW,2013-05-08 03:53:00,
2013-05-07 20:58:00,61.4,51.2,29.96,WSW,248,2.7,2.7,69,0.00,,,0.00,WUHU216HW,2013-05-08 03:58:00,
2013-05-07 21:01:00,61.2,51.0,29.96,NW,315,1.8,2.7,69,0.00,,,0.00,WUHU216HW,2013-05-08 04:01:00,
2013-05-07 21:02:00,61.2,51.0,29.96,WNW,293,0.4,2.7,69,0.00,,,0.00,WUHU216HW,2013-05-08 04:02:00,
2013-05-07 21:07:00,61.0,50.9,29.96,SW,225,1.1,2.7,69,0.00,,,0.00,WUHU216HW,2013-05-08 04:07:00,
2013-05-07 21:12:00,60.8,50.7,29.96,West,270,0.4,2.5,69,0.00,,,0.00,WUHU216HW,2013-05-08 04:12:00,
2013-05-07 21:17:00,60.7,50.5,29.96,West,270,0.2,1.1,69,0.00,,,0.00,WUHU216HW,2013-05-08 04:17:00,
2013-05-07 21:22:00,60.7,50.5,29.96,WNW,293,0.2,0.7,69,0.00,,,0.00,WUHU216HW,2013-05-08 04:22:00,
2013-05-07 21:27:00,60.3,50.1,29.97,WNW,293,0.0,1.1,69,0.00,,,0.00,WUHU216HW,2013-05-08 04:27:00,
2013-05-07 21:32:00,60.1,51.1,29.97,WNW,293,0.4,1.1,72,0.00,,,0.00,WUHU216HW,2013-05-08 04:32:00,
2013-05-07 21:37:00,59.9,50.9,29.97,NW,315,1.1,1.6,72,0.00,,,0.00,WUHU216HW,2013-05-08 04:37:00,
2013-05-07 21:42:00,59.8,51.1,29.97,NNW,338,0.4,1.6,73,0.00,,,0.00,WUHU216HW,2013-05-08 04:42:00,
2013-05-07 21:48:00,59.4,51.1,29.97,NW,315,0.4,1.1,74,0.00,,,0.00,WUHU216HW,2013-05-08 04:48:00,
2013-05-07 21:53:00,59.4,51.1,29.97,WNW,293,0.0,1.1,74,0.00,,,0.00,WUHU216HW,2013-05-08 04:53:00,
2013-05-07 21:58:00,59.2,50.9,29.97,WNW,293,1.1,1.1,74,0.00,,,0.00,WUHU216HW,2013-05-08 04:58:00,
2013-05-07 22:03:00,59.0,50.4,29.97,WNW,293,0.0,1.1,73,0.00,,,0.00,WUHU216HW,2013-05-08 05:03:00,
2013-05-07 22:08:00,59.0,50.4,29.98,West,270,0.4,0.4,73,0.00,,,0.00,WUHU216HW,2013-05-08 05:08:00,
2013-05-07 22:13:00,58.7,50.0,29.98,WSW,248,0.0,0.4,73,0.00,,,0.00,WUHU216HW,2013-05-08 05:13:00,
2013-05-07 22:18:00,58.7,49.7,29.98,WSW,248,0.0,0.4,72,0.00,,,0.00,WUHU216HW,2013-05-08 05:18:00,
2013-05-07 22:23:00,58.7,49.7,29.97,WSW,248,0.0,0.0,72,0.00,,,0.00,WUHU216HW,2013-05-08 05:23:00,
2013-05-07 22:28:00,58.5,49.5,29.98,WSW,248,0.0,0.0,72,0.00,,,0.00,WUHU216HW,2013-05-08 05:28:00,
2013-05-07 22:33:00,58.3,49.7,29.97,WSW,248,0.0,0.0,73,0.00,,,0.00,WUHU216HW,2013-05-08 05:33:00,
2013-05-07 22:38:00,58.0,49.3,29.97,SW,225,0.9,0.9,73,0.00,,,0.00,WUHU216HW,2013-05-08 05:38:00,
2013-05-07 22:43:00,58.0,49.3,29.97,SW,225,0.2,0.9,73,0.00,,,0.00,WUHU216HW,2013-05-08 05:43:00,
2013-05-07 22:48:00,57.8,49.1,29.97,SSW,203,0.0,0.4,73,0.00,,,0.00,WUHU216HW,2013-05-08 05:48:00,
2013-05-07 22:53:00,57.6,49.3,29.97,SSW,203,0.0,0.0,74,0.00,,,0.00,WUHU216HW,2013-05-08 05:53:00,
2013-05-07 22:58:00,57.4,49.1,29.97,SSW,203,0.0,0.0,74,0.00,,,0.00,WUHU216HW,2013-05-08 05:58:00,
2013-05-07 23:03:00,57.2,49.0,29.97,SSW,203,0.0,0.0,74,0.00,,,0.00,WUHU216HW,2013-05-08 06:03:00,
2013-05-07 23:08:00,57.2,49.3,29.97,SSW,203,0.0,0.0,75,0.00,,,0.00,WUHU216HW,2013-05-08 06:08:00,
2013-05-07 23:13:00,57.1,49.1,29.97,SW,225,0.2,0.2,75,0.00,,,0.00,WUHU216HW,2013-05-08 06:13:00,
2013-05-07 23:19:00,57.1,49.1,29.97,SW,225,0.0,0.2,75,0.00,,,0.00,WUHU216HW,2013-05-08 06:19:00,
2013-05-07 23:24:00,56.9,49.3,29.98,SW,225,0.0,0.0,76,0.00,,,0.00,WUHU216HW,2013-05-08 06:24:00,
2013-05-07 23:29:00,56.7,49.1,29.98,SW,225,0.0,0.0,76,0.00,,,0.00,WUHU216HW,2013-05-08 06:29:00,
2013-05-07 23:34:00,56.5,49.0,29.98,SW,225,0.0,0.0,76,0.00,,,0.00,WUHU216HW,2013-05-08 06:34:00,
2013-05-07 23:39:00,56.5,49.3,29.98,SW,225,0.0,0.0,77,0.00,,,0.00,WUHU216HW,2013-05-08 06:39:00,
2013-05-07 23:44:00,56.5,50.0,29.98,SW,225,0.0,0.0,79,0.00,,,0.00,WUHU216HW,2013-05-08 06:44:00,
2013-05-07 23:49:00,56.5,50.4,29.98,WNW,293,0.0,0.0,80,0.00,,,0.00,WUHU216HW,2013-05-08 06:49:00,
2013-05-07 23:54:00,56.5,51.4,29.98,NNW,338,0.7,0.7,83,0.00,,,0.00,WUHU216HW,2013-05-08 06:54:00,
2013-05-07 23:59:00,56.5,51.0,29.98,NNW,338,0.0,0.7,82,0.00,,,0.00,WUHU216HW,2013-05-08 06:59:00,